This is the latest recevied weather packets stored in our database for station/object F4ETJ-1. If no packets are shown the sender has not sent any weather packets the latest 10 day(s).
| Time | Temp. | Humidity | Pressure | Rain* | Wind** | Luminosity | Snow |
|---|---|---|---|---|---|---|---|
| 1777369238 | 19.44° C | 52% | 1012.1 hPa | 0 mm | - | - | - |
| 1777368878 | 18.89° C | 52% | 1012.3 hPa | 0 mm | - | - | - |
| 1777368518 | 18.89° C | 53% | 1012.3 hPa | 0 mm | - | - | - |
| 1777368157 | 18.89° C | 53% | 1012.4 hPa | 0 mm | - | - | - |
| 1777367797 | 18.33° C | 55% | 1012.4 hPa | 0 mm | - | - | - |
| 1777367437 | 18.33° C | 55% | 1012.3 hPa | 0 mm | - | - | - |
| 1777367076 | 17.78° C | 55% | 1012.4 hPa | 0 mm | - | - | - |
| 1777366716 | 17.78° C | 55% | 1012.4 hPa | 0 mm | - | - | - |
| 1777366356 | 17.22° C | 57% | 1012.4 hPa | 0 mm | - | - | - |
| 1777365995 | 16.67° C | 57% | 1012.4 hPa | 0 mm | - | - | - |
| 1777365635 | 16.11° C | 59% | 1012.5 hPa | 0 mm | - | - | - |
| 1777365277 | 15.56° C | 61% | 1012.6 hPa | 0 mm | - | - | - |
| 1777364914 | 15° C | 63% | 1012.6 hPa | 0 mm | - | - | - |
| 1777364554 | 15° C | 63% | 1012.7 hPa | 0 mm | - | - | - |
| 1777364194 | 14.44° C | 63% | 1012.7 hPa | 0 mm | - | - | - |
| 1777363833 | 14.44° C | 63% | 1012.8 hPa | 0 mm | - | - | - |
| 1777363473 | 14.44° C | 64% | 1012.7 hPa | 0 mm | - | - | - |
| 1777363113 | 14.44° C | 62% | 1012.5 hPa | 0 mm | - | - | - |
| 1777362752 | 14.44° C | 62% | 1012.6 hPa | 0 mm | - | - | - |
| 1777362392 | 14.44° C | 62% | 1012.6 hPa | 0 mm | - | - | - |
| 1777362032 | 14.44° C | 60% | 1012.6 hPa | 0 mm | - | - | - |
| 1777361671 | 14.44° C | 61% | 1012.6 hPa | 0 mm | - | - | - |
| 1777361311 | 14.44° C | 62% | 1012.5 hPa | 0 mm | - | - | - |
| 1777360951 | 13.89° C | 62% | 1012.6 hPa | 0 mm | - | - | - |
| 1777360590 | 13.89° C | 62% | 1012.6 hPa | 0 mm | - | - | - |
* Rain latest hour (hover to see other rain measurements)
** Current wind speed in m/s (hover to see current wind gust speed)